Racecast

Jacob Yeager

Temperance Bedford (MI) · 12 · SECMI D1MONROE · Compare head to head

Athlete rating 105.8 2025 TF season
Best race 132.7 XC
Races 91
Seasons 8 2018 — 2025

RankedNation #76155·MI #3369·MI D1 #1878·SEC #166·Team #28 ?

Rating scale ?

Cross Country

2024 XC

Temperance Bedford (MI) · Grade 12

Date Meet Event Result Place Rating Difficulty PR/SR Flags
2024-09-10 Willow Metropark OFFICIAL 5000m +0.048 ★CR SR CSR

2023 XC 118.1

Temperance Bedford (MI) · Grade 11

Date Meet Event Result Place Rating Difficulty PR/SR Flags
2023-10-28 Lake Erie Metro Park OFFICIAL 5000m 18:05.1 21st · 4th on team 122.7 +0.055 CSR
2023-10-19 Hudson Mills Metropark - OFFICIAL 5000m 18:17.6 43rd · 6th on team 119.3 +0.036 CSR
2023-10-14 Munson Park 5000m 18:19.9 12th · 3rd on team 121.9 +0.054 ★CR CSR
2023-09-30 Lake Erie Metro Park OFFICIAL 5000m 18:36.1 4th · 3rd on team 119.8 +0.055 CSR
2023-09-27 Saline High School 5000m 17:43.1 52nd · 9th on team 123.5 +0.039 ★PR ★CR SR CSR RSR
2023-09-23 Ella Sharp Park OFFICIAL 5000m 17:55.7 153rd · 6th on team 123.2 +0.038 ★CR CSR RSR
2023-09-16 Ottawa Park Golf Course 5000m 18:19.4 72nd · 5th on team 111.6 -0.030 ★CR CSR
2023-09-13 Indian Creek OFFICIAL 5000m 17:51.9 54th · 5th on team 122.6 +0.039 PR ★CR SR CSR RSR
2023-09-09 Hedges Boyer Park 5000m 18:24.9 36th · 1st on team 109.7 -0.036 ★CR SR CSR
2023-09-02 Forest Creason Golf Course 5000m 19:42 104th · 15th on team 104.3 -0.032 ★CR CSR
2023-08-18 Ford Field/EE Ice Arena(LIVONIA) OFFICIAL 5000m 18:33 79th · 7th on team 121.0 +0.070 ★CR SR CSR RSR

2022 XC 119.4

Temperance Bedford (MI) · Grade 10

Date Meet Event Result Place Rating Difficulty PR/SR Flags
2022-10-20 Hudson Mills Metropark - OFFICIAL 5000m 17:58.1 40th · 6th on team 121.5 +0.036 ★CR CSR
2022-10-15 Munson Park 5000m 18:22.4 11th · 5th on team 121.9 +0.054 CR CSR
2022-10-01 Lake Erie Metro Park OFFICIAL 5000m 17:52.9 26th · 5th on team 125.5 +0.055 PR ★CR SR CSR RSR
2022-09-28 Pioneer HS 5000m 18:12.7 39th · 4th on team 123.5 +0.067 PR ★CR SR CSR RSR
2022-09-24 Ella Sharp Park OFFICIAL 5000m 18:35.1 139th · 7th on team 117.2 +0.038 PR CR SR CSR
2022-09-14 Ella Sharp Park OFFICIAL 5000m 18:55.1 84th · 6th on team 117.2 +0.038 CR CSR
2022-09-10 Hedges Boyer Park 5000m 18:49.4 58th · 6th on team 109.5 -0.036 PR CR SR CSR
2022-08-19 Ford Field/EE Ice Arena(LIVONIA) OFFICIAL 5000m 19:11.8 90th · 6th on team 118.8 +0.070 CR SR CSR RSR

2021 XC 110.6

Temperance Bedford (MI) · Grade 9

Date Meet Event Result Place Rating Difficulty PR/SR Flags
2021-10-30 Lake Erie Metro Park OFFICIAL 5000m 20:17.9 22nd · 3rd on team 111.2 +0.055
2021-10-21 Hudson Mills Metropark - OFFICIAL 5000m 18:55.8 37th · 4th on team 118.4 +0.036 PR CR SR CSR RSR
2021-10-16 Munson Park 5000m 20:30.3 11th · 6th on team 110.8 +0.054 CR CSR
2021-10-02 Lake Erie Metro Park OFFICIAL 5000m 19:23 18th · 6th on team 117.2 +0.055 CR CSR
2021-09-28 Munson Park 5000m +0.054 CR CSR
2021-09-24 Ella Sharp Park OFFICIAL 5000m 19:09.4 45th · 5th on team 118.3 +0.038 PR CR SR CSR RSR
2021-09-18 Ottawa Park Golf Course 5000m 19:34.6 38th · 1st on team 106.8 -0.030 CR CSR RSR
2021-09-11 Hedges Boyer Park 5000m 20:08.9 103rd · 9th on team 103.5 -0.036 CR CSR
2021-09-04 BGSU 5000m 19:26 88th · 12th on team 106.4 -0.038 PR ★CR SR CSR RSR
2021-08-28 Walsh Park 5000m 20:47.6 14th · 3rd on team 103.2 -0.009 PR ★CR SR CSR RSR

2020 XC 126.8

Temperance Bedford (MI) · Grade 8

Date Meet Event Result Place Rating Difficulty PR/SR Flags
2020-10-14 Indian Creek OFFICIAL 3200m 12:47 17th · 13th on team 132.7 +0.038 ★PR ★CR ★R SR CSR RSR
2020-10-07 Hudson Mills Metropark - OFFICIAL 3218m 14:24.2 16th · 11th on team 124.4 +0.062 ★CR CSR
2020-09-24 Indian Creek OFFICIAL 3200m 13:14 10th · 10th on team 130.8 +0.038 PR CR SR CSR RSR
2020-09-19 Indian Creek OFFICIAL 3218m 13:12 12th · 11th on team 129.0 +0.038 ★CR SR CSR RSR
2020-09-16 Rolling Hills 3218m 14:39.9 15th · 14th on team 124.2 +0.077 ★CR SR CSR
2020-09-09 Indian Creek OFFICIAL 3200m 13:27 10th · 10th on team 125.8 +0.038 CR SR CSR RSR
2020-08-29 Indian Creek OFFICIAL 3200m 14:14 10th · 10th on team 120.8 +0.038 CR SR CSR RSR

2018 XC 117.8

Temperance Bedford (MI) · Grade 6

Date Meet Event Result Place Rating Difficulty PR/SR Flags
2018-10-10 Saline High School 3200m 13:18.2 47th · 9th on team 127.3 +0.016 PR ★CR SR CSR
2018-10-06 Munson Park 3218m 13:25.4 20th · 7th on team 128.2 +0.034 ★CR CSR
2018-09-25 Hudson Mills Metropark - OFFICIAL 3218m 14:30.3 13th · 4th on team 89.1 +0.062 CR CSR
2018-09-15 Ottawa Park Golf Course 3200m 13:24.2 10th · 10th on team 118.9 -0.037 PR ★CR SR CSR
2018-09-12 Tecumseh HS 3218m 12:49.2 34th · 9th on team 132.1 +0.036 ★PR ★CR R SR CSR RSR
2018-08-30 Eastwood HS 3200m 13:56 25th · 4th on team 110.9 -0.060 PR ★CR R SR CSR RSR

Track & Field

2025 TF 105.6

Temperance Bedford (MI) · Grade 12

Date Meet Event Result Place Rating Difficulty PR/SR Flags
2025-05-23 2025 MITCA D1 Team State hj 5' 4" -0.037
2025-05-16 MHSAA LP Region 05-1 @ Ypsi Lincoln hj 5' 8" -0.032
2025-05-08 SEC-HS Championship (Red) (EQ Approved) hj 5' 8" -0.033
2025-05-02 Knight (Boys)Relays 2025 hj 5-8 -0.043
2025-04-29 SEC-HS: Lincoln @ Bedford hj 5' 8" -0.033
2025-04-26 2025 April Showers Invitational (EQ Approved) hj 5' 6" -0.036
2025-04-22 SEC-HS: Bedford & Pioneer @ Monroe hj 5' 6" -0.032
2025-04-22 SEC-HS: Bedford & Pioneer @ Monroe 800m 2:22.74 17th · 5th on team 105.3 -0.032
2025-04-19 5th Titan Varsity Invite hj 5' 6" -0.042
2025-04-15 SEC-HS: Bedford & Dexter @ Skyline hj 5' 10" -0.033
2025-04-11 Whitmer Gold W 2025 hj 5-04.00 -0.040
2025-04-11 Whitmer Gold W 2025 hj 5-04.00 -0.040
2025-04-07 SEC-HS: Huron & Saline @ Bedford hj 5' 4" -0.033
2025-04-07 SEC-HS: Huron & Saline @ Bedford 800m 2:22.42 13th · 5th on team 105.9 -0.033 ★PR SR RSR
2025-03-20 '25 Lincoln Spring Indoor Classic hj 5' 6 -0.035

2024 TF 100.9

Temperance Bedford (MI) · Grade 11

Date Meet Event Result Place Rating Difficulty PR/SR Flags
2024-05-24 2024 MITCA D1 Team State hj NH -0.033
2024-05-09 SEC-HS: Championship (Red) hj 5' 6 -0.032
2024-04-30 SEC-HS: Bedford @ Lincoln hj 5' 8 -0.032
2024-04-25 Knight Classic 2024 JV hj 5-06 -0.043
2024-04-20 Woodhaven Warrior Classic hj 5' 4 -0.029
2024-04-16 SEC-HS: Skyline & Bedford at Dexter hj 5' 4 -0.036
2024-04-16 SEC-HS: Skyline & Bedford at Dexter 1600m 5:31.7 34th · 8th on team 100.9 -0.036 SR RSR
2024-04-09 SEC HS: Huron & Saline at Bedford hj 5' 2 -0.033

2023 TF 104.0

Temperance Bedford (MI) · Grade 10

Date Meet Event Result Place Rating Difficulty PR/SR Flags
2023-05-12 SEC-HS: Championship (Red) hj NH -0.036
2023-05-02 SEC-HS: Monroe @ Bedford hj NH -0.033
2023-05-02 SEC-HS: Monroe @ Bedford 1600m 5:22.82 8th · 4th on team 106.0 -0.033 RSR
2023-05-02 SEC-HS: Monroe @ Bedford 800m 2:29.51 6th · 5th on team 102.7 -0.033 PR SR
2023-04-25 SEC-HS: Bedford & Lincoln @ Skyline hj 5' 0 -0.033
2023-04-22 2023 Warrior TF Classic hj NH -0.029
2023-04-22 2023 Warrior TF Classic 1600m 5:18.86 29th · 3rd on team 106.0 -0.029 RSR
2023-04-18 SEC-HS: Huron & Bedford @ Saline hj 5' 0 -0.042
2023-04-18 SEC-HS: Huron & Bedford @ Saline 1600m 5:17.5 26th · 2nd on team 105.9 -0.042 ★PR SR RSR
2023-04-15 Monroe Jefferson 9/10 Invitational hj 5' 1 -0.027
2023-04-10 SEC-HS: Pioneer & Dexter @ Bedford hj 5' 0 -0.033
2023-04-10 SEC-HS: Pioneer & Dexter @ Bedford 1600m 5:20.79 22nd · 3rd on team 104.5 -0.033 PR SR RSR
2023-04-10 SEC-HS: Pioneer & Dexter @ Bedford 800m 2:32.31 32nd · 8th on team 98.7 -0.033 PR SR
2023-03-23 '23 SEC Invite hj NH -0.035

2021 TF 108.1

Temperance Bedford (MI) · Grade 8

Date Meet Event Result Place Rating Difficulty PR/SR Flags
2021-05-06 Bedford JH @ Monroe MS lj 11-07.50 -0.032
2021-05-06 Bedford JH @ Monroe MS 1600m 6:12.23 4th · 3rd on team 107.7 -0.032
2021-05-06 Bedford JH @ Monroe MS 70m 11.62 6th · 5th on team -0.032 ★PR SR
2021-05-03 Lincoln MS vs Bedford MS lj 10-11.00 -0.032
2021-05-03 Lincoln MS vs Bedford MS 1600m 6:00.55 2nd · 1st on team 111.2 -0.032 PR SR RSR
2021-04-29 Dexter MS @ Bedford MS hj 4'00.00 -0.033
2021-04-29 Dexter MS @ Bedford MS 800m 2:54.59 8th · 4th on team 105.3 -0.033 PR SR RSR

2019 TF 100.4

Temperance Bedford (MI) · Grade 6

Date Meet Event Result Place Rating Difficulty PR/SR Flags
2019-05-13 Lincoln MS @ Bedford MS 400m 1:19.59 14th · 9th on team -0.033
2019-05-13 Lincoln MS @ Bedford MS 100m 16.45 10th · 6th on team -0.033 ★PR SR
2019-05-06 Ypsilanti MS @ Bedford 400m 1:17.34 7th · 5th on team -0.033 ★PR SR
2019-04-22 SEC-MS: Adrian @ Bedford 800m 3:01.58 6th · 2nd on team 100.4 -0.033 PR SR RSR